Weather in Dzhaga

Russia / Karachay-Cherkess Republic     43°57′15″N   42°33′17″E
temp.,
°C
wind,
m/s
gust,
m/s
humid.,
%
clouds,
%
prec.,
mm/h
press.,
hPa
HPBL,
m
28 november, sun
sun2800:00+3s335992 0.0 101816
03:00+6s3263100 0.0 101513
06:00+6ssw2260100 0.0 101511
09:00+8ssw225323 0.0 101415
12:00+11n1146100 0.0 1013314
15:00+11ene225040 0.0 1012185
18:00+7s216057 0.0 101310
21:00+7ssw2260100 0.0 101311
29 november, mon
mon2900:00+7sw226199 0.0 101412
03:00+7ssw226195 0.0 101410
06:00+7sse2264100 0.0 101410
09:00+9s2256100 0.0 101519
12:00+15se12395 0.0 1012413
15:00+14e2244100 0.0 101234
18:00+11s324678 0.0 101018
21:00+12s324193 0.0 100916
30 november, tue
tue3000:00+12ssw3346100 0.0 100721
03:00+12ssw3351100 0.0 100626
06:00+10wsw3356100 0.0 100526
09:00+7n2296100 0.0 1008210
12:00+11n1174100 0.6 1006329
15:00+9ne338551 0.6 1006259
18:00+7se229416 0.0 100441
21:00+7s337494 0.9 100035
1 december, wed
wed100:00+7ssw5681100 1.9 997130
03:00+3nw4799100 10.8 1001399
06:00+7wsw614691 3.7 999641
09:00+4nw81174100 3.9 1006562
12:000wnw81492100 0.8 1011741
15:000wnw7118025 0.9 1011617
18:00−1wnw368989 0.0 1013394
21:00−1n119199 0.1 1014212
2 december, thu
thu200:00−1s33875 0.0 1015107
03:00−1wsw22691 0.0 101513
06:00−2sse218295 0.0 101716
09:00+1sse12634 0.0 1019143
12:00+4ne11465 0.0 1018615
15:00+4nne21510 0.0 1019453
18:000sse11680 0.0 102110
21:00+1s21620 0.0 102110